Regional Weather Roundup
Issued by NWS Albany, NY

Home | Current Version | Previous Version | Text Only | Print | Product List | Glossary On
Versions: 1 2 3 4 5 6 7 8 9 10 11 12 13 14 15 16 17 18 19 20 21 22 23 24 25 26 27 28 29 30 31 32 33 34 35 36 37 38 39 40 41 42 43 44 45 46 47 48 49 50
000
ASUS41 KALY 090010
RWRALY

NEW YORK STATE HOURLY WEATHER ROUNDUP
NATIONAL WEATHER SERVICE ALBANY NY
700 PM EST MON FEB 08 2016

NOTE: "FAIR" INDICATES FEW OR NO CLOUDS BELOW 12,000 FEET WITH NO
SIGNIFICANT WEATHER AND/OR NO OBSTRUCTIONS TO VISIBILITY.

NYZ032-033-038>043-046>054-057>066-NYZ062>081-090100-
EAST


CITY           SKY/WX    TMP DP  RH WIND       PRES   REMARKS
ALBANY         LGT SNOW  25  20  81 NE3       29.81S
GLENS FALLS    LGT SNOW  26  22  84 NE3       29.80F FOG
POUGHKEEPSIE   LGT SNOW  29  22  75 N3        29.79R
NEWBURGH       CLOUDY    27  23  86 E7        29.78R WCI  19
MONTGOMERY     FLURRIES  29  21  72 E7        29.77R WCI  22
WHITE PLAINS   FLURRIES  27  20  75 N6        29.77R WCI  20
ISLIP          FLURRIES  27  22  81 N9        29.78R WCI  18
NEW YORK CITY  FLURRIES  31  23  72 N9        29.79R WCI  23
CENTRAL PARK   CLOUDY    31  22  69 NE9G16    29.80R WCI  23
$$

NYZ005>009-017-018-044>046-055-056-090100-
CENTRAL


CITY           SKY/WX    TMP DP  RH WIND       PRES   REMARKS
FULTON         CLOUDY    37  13  37 E8        29.69S WCI  31
SYRACUSE       CLOUDY    32  13  45 E15       29.69R WCI  22
ROME           CLOUDY    31   2  29 SE9       29.76R WCI  23
ELMIRA         CLOUDY    38  24  57 SE9       29.63S WCI  31
BINGHAMTON     CLOUDY    35  14  42 S8        29.63R WCI  29
MONTICELLO     CLOUDY    28  14  54 E7        29.70F WCI  21
$$

NYZ026>034-041>043-090100-
NORTH


CITY           SKY/WX    TMP DP  RH WIND       PRES   REMARKS
WATERTOWN      CLOUDY    24  11  57 NE14      29.75R WCI  12
FORT DRUM      NOT AVBL
MASSENA        CLOUDY    21   7  54 E18       29.84R WCI   6
SARANAC LAKE   CLOUDY    20  10  65 NE13      29.69S WCI   7
PLATTSBURGH    CLOUDY    23   6  48 N9        29.84S WCI  13
$$

NYZ001>004-010>016-019>021-090100-
WEST


CITY           SKY/WX    TMP DP  RH WIND       PRES   REMARKS
NIAGARA FALLS  CLOUDY    41  26  55 E10G20    29.58R
BUFFALO        CLOUDY    41  25  53 E10       29.58R
DUNKIRK        CLOUDY    41  27  57 SE9       29.57R
JAMESTOWN      MOCLDY    37  23  56 S14G21    29.54R WCI  29
WELLSVILLE     CLOUDY    34  22  61 S10       29.57S WCI  26
ROCHESTER      CLOUDY    38  26  62 E12       29.63S WCI  30
PENN YAN       CLOUDY    38  24  57 SE8       29.63S WCI  32
$$

             KEY
       WCI = WIND CHILL INDEX
       VSB = VISIBILITY
       HX  = HEAT INDEX
$$



USA.gov is the U.S. government's official web portal to all federal, state and local government web resources and services.